TimeAST,TemperatureF,Dew PointF,Humidity,Sea Level PressureIn,VisibilityMPH,Wind Direction,Wind SpeedMPH,Gust SpeedMPH,PrecipitationIn,Events,Conditions,WindDirDegrees,DateUTC
12:00 AM,26.6,15.8,64,29.99,15.0,WSW,3.5,-,N/A,,Scattered Clouds,240,2013-11-14 04:00:00
1:00 AM,24.8,15.8,69,29.98,15.0,WSW,5.8,-,N/A,,Scattered Clouds,240,2013-11-14 05:00:00
2:00 AM,25,17,61,29.98,15,WSW,6.9,,,,Partly Cloudy,240,2013-11-14 06:00:00
2:00 AM,24.8,17.6,74,29.98,15.0,SW,6.9,-,N/A,,Scattered Clouds,230,2013-11-14 06:00:00
3:00 AM,24.8,17.6,74,29.97,15.0,WSW,8.1,-,N/A,,Partly Cloudy,240,2013-11-14 07:00:00
4:00 AM,23.0,17.6,80,29.96,15.0,SW,6.9,-,N/A,,Partly Cloudy,230,2013-11-14 08:00:00
5:00 AM,23.0,15.8,74,29.96,15.0,WSW,6.9,-,N/A,,Partly Cloudy,240,2013-11-14 09:00:00
6:00 AM,23.0,15.8,74,29.96,15.0,WSW,8.1,-,N/A,,Scattered Clouds,240,2013-11-14 10:00:00
7:00 AM,23.0,15.8,74,29.95,15.0,SW,4.6,-,N/A,,Mostly Cloudy,230,2013-11-14 11:00:00
8:00 AM,24,17,66,29.96,15,South,2.3,,,,Scattered Clouds,190,2013-11-14 12:00:00
8:00 AM,24.8,17.6,74,29.95,15.0,SSW,2.3,-,N/A,,Mostly Cloudy,200,2013-11-14 12:00:00
9:00 AM,30.2,23.0,75,29.95,15.0,SW,8.1,-,N/A,,Mostly Cloudy,230,2013-11-14 13:00:00
10:00 AM,35.6,23.0,60,29.94,15.0,WSW,12.7,20.7,N/A,,Scattered Clouds,240,2013-11-14 14:00:00
11:00 AM,35.6,24.8,65,29.94,15.0,WSW,12.7,25.3,N/A,,Mostly Cloudy,240,2013-11-14 15:00:00
12:00 PM,37.4,26.6,65,29.91,15.0,SW,10.4,23.0,N/A,,Mostly Cloudy,230,2013-11-14 16:00:00
1:00 PM,37.4,30.2,75,29.90,15.0,SSW,12.7,-,N/A,,Mostly Cloudy,210,2013-11-14 17:00:00
2:00 PM,39,28,54,29.88,15,SW,15.0,,,,Partly Cloudy,230,2013-11-14 18:00:00
2:00 PM,39.2,28.4,65,29.88,15.0,WSW,13.8,21.9,N/A,,Scattered Clouds,240,2013-11-14 18:00:00
3:00 PM,39.2,28.4,65,29.90,15.0,SW,9.2,-,N/A,,Mostly Cloudy,230,2013-11-14 19:00:00
4:00 PM,39.2,28.4,65,29.91,15.0,WSW,6.9,-,N/A,,Mostly Cloudy,250,2013-11-14 20:00:00
5:00 PM,37.4,26.6,65,29.92,15.0,West,4.6,-,N/A,,Overcast,260,2013-11-14 21:00:00
6:00 PM,37.4,26.6,65,29.94,15.0,WSW,5.8,-,N/A,,Overcast,240,2013-11-14 22:00:00
7:00 PM,37.4,26.6,65,29.95,15.0,West,5.8,-,N/A,,Overcast,260,2013-11-14 23:00:00
8:00 PM,37,28,59,29.96,15,West,5.8,,,,Overcast,260,2013-11-15 00:00:00
8:00 PM,37.4,28.4,70,29.96,15.0,West,4.6,-,N/A,,Overcast,260,2013-11-15 00:00:00
9:00 PM,37.4,26.6,65,29.98,15.0,WSW,5.8,-,N/A,,Overcast,250,2013-11-15 01:00:00
10:00 PM,37.4,28.4,70,29.99,15.0,SW,5.8,-,N/A,,Overcast,230,2013-11-15 02:00:00
11:00 PM,37.4,28.4,70,29.99,15.0,SW,4.6,-,N/A,,Overcast,220,2013-11-15 03:00:00